This is the latest recevied weather packets stored in our database for station/object IW3HBX-3. If no packets are shown the sender has not sent any weather packets the latest 10 day(s).
| Time | Temp. | Humidity | Pressure | Rain* | Wind** | Luminosity | Snow |
|---|---|---|---|---|---|---|---|
| 1777584635 | 11.67° C | 60% | 1026.7 hPa | 0 mm | - | 0 W/m² | - |
| 1777584335 | 11.67° C | 60% | 1026.6 hPa | 0 mm | - | 0 W/m² | - |
| 1777584035 | 11.67° C | 58% | 1026.7 hPa | 0 mm | - | 0 W/m² | - |
| 1777583735 | 12.22° C | 58% | 1026.5 hPa | 0 mm | - | 0 W/m² | - |
| 1777583435 | 12.22° C | 56% | 1026.5 hPa | 0 mm | - | 0 W/m² | - |
| 1777583134 | 12.22° C | 55% | 1026.5 hPa | 0 mm | - | 0 W/m² | - |
| 1777582834 | 12.22° C | 54% | 1026.4 hPa | 0 mm | - | 0 W/m² | - |
| 1777582534 | 12.78° C | 54% | 1026.4 hPa | 0 mm | - | 0 W/m² | - |
| 1777582241 | 12.78° C | 54% | 1026.5 hPa | 0 mm | - | 0 W/m² | - |
| 1777581934 | 12.22° C | 54% | 1026.4 hPa | 0 mm | - | 0 W/m² | - |
| 1777581634 | 12.22° C | 54% | 1026.2 hPa | 0 mm | - | 0 W/m² | - |
| 1777581334 | 12.22° C | 54% | 1026.2 hPa | 0 mm | - | 0 W/m² | - |
| 1777581034 | 12.78° C | 55% | 1026.2 hPa | 0 mm | - | 0 W/m² | - |
| 1777580734 | 12.78° C | 54% | 1026.1 hPa | 0 mm | - | 0 W/m² | - |
| 1777580434 | 12.78° C | 54% | 1026.2 hPa | 0 mm | - | 0 W/m² | - |
| 1777580134 | 12.78° C | 51% | 1025.9 hPa | 0 mm | - | 0 W/m² | - |
| 1777579833 | 12.78° C | 53% | 1026 hPa | 0 mm | - | 0 W/m² | - |
| 1777579534 | 12.78° C | 53% | 1025.9 hPa | 0 mm | - | 0 W/m² | - |
| 1777579233 | 13.33° C | 53% | 1025.8 hPa | 0 mm | - | 0 W/m² | - |
| 1777578933 | 13.33° C | 52% | 1025.8 hPa | 0 mm | - | 0 W/m² | - |
| 1777578633 | 13.33° C | 51% | 1025.6 hPa | 0 mm | - | 0 W/m² | - |
| 1777578333 | 13.33° C | 51% | 1025.6 hPa | 0 mm | - | 0 W/m² | - |
| 1777578033 | 13.33° C | 51% | 1025.5 hPa | 0 mm | - | 0 W/m² | - |
| 1777577733 | 13.33° C | 50% | 1025.5 hPa | 0 mm | - | 0 W/m² | - |
| 1777577433 | 13.89° C | 50% | 1025.3 hPa | 0 mm | - | 0 W/m² | - |
* Rain latest hour (hover to see other rain measurements)
** Current wind speed in m/s (hover to see current wind gust speed)